Location: Coopersdale
(40.3556°N, 78.9372°W)
Time: 03:34:48
(UTC+00:00)

Tiros 1 despin weight - Pass Details

Date: 28 January 2021
Orbit: 593 x 642 km, 48.2° (Epoch: 02 March)

Event Time Altitude Azimuth Distance (km) Brightness Sun altitude
Rises 17:43:40 0° 234° (SW) 2,910 ? 31.5°
Reaches altitude 10° 17:45:59 10° 232° (SW) 1,998 ? 31.5°
Maximum altitude 17:50:35 77° 148° (SSE) 641 ? 31.4°
Drops below altitude 10° 17:55:07 10° 62° (ENE) 1,975 ? 31.3°
Sets 17:57:25 0° 61° (ENE) 2,874 ? 31.3°
